Regional Weather Roundup
Issued by NWS San Diego, CA

Home | Current Version | Previous Version | Text Only | Print | Product List | Glossary On
Versions: 1 2 3 4 5 6 7 8 9 10 11 12 13 14 15 16 17 18 19 20 21 22 23 24 25 26 27
000
ASUS46 KSGX 230511
RWRSGX

SAN DIEGO HOURLY WEATHER ROUNDUP
NATIONAL WEATHER SERVICE SAN DIEGO CA
900 PM PST SUN JAN 22 2017

NOTE: "FAIR" INDICATES FEW OR NO CLOUDS BELOW 12,000 FEET WITH NO
SIGNIFICANT WEATHER AND/OR OBSTRUCTIONS TO VISIBILITY.

CAZ042-043-060-061-PZZ750-775-230600-

GREATER SAN DIEGO AREA

CITY           SKY/WX    TMP DP  RH WIND       PRES   REMARKS
SAN DIEGO AP   LGT RAIN  57  54  89 S24G38    29.98F FOG
NATIONAL CITY    N/A     57  55  92 SE17      29.97F
CHULA VISTA      N/A     57  55  94 S3        29.89F
IMPERIAL BEACH   N/A     59  54  83 S22G35    29.97F
BROWN FIELD    LGT RAIN  55  54  96 S17G28    29.95F
MIRAMAR MCAS   LGT RAIN  59  55  87 S17G25    29.95F FOG
MONTGOMERY FLD RAIN      55  53  93 S15G24    29.96F FOG

$$

NORTH SAN DIEGO COUNTY

CITY           SKY/WX    TMP DP  RH WIND       PRES   REMARKS
CAMP PENDLETON CLOUDY    58  57  97 S23G33    29.94S
OCEANSIDE AP   CLOUDY    58  57  97 S22G29    29.93S
OCEANSIDE HBR    N/A     58  57  97 S13       29.98R
CARLSBAD       LGT RAIN  56  56 100 S17G32    29.93F
DEL MAR          N/A     56  55  96 W8        29.99R
LA JOLLA SCRIP   N/A     56  56  98 SE17      29.96R
FALLBROOK        N/A     55  55 100 S5        29.94R
ESCONDIDO        N/A     55  53  94 SE6       29.98S
SAN MARCOS       N/A     55  51  87 S12       29.99R
POWAY            N/A     54  52  90 S6        29.98F

$$

EAST SAN DIEGO COUNTY

CITY           SKY/WX    TMP DP  RH WIND       PRES   REMARKS
RAMONA         RAIN      53  53 100 S17G26    29.94F
SANTEE LAKES     N/A     55  53  92 SE7       29.95F
LA MESA          N/A     54  53  95 S3        29.89F
JAMUL            N/A     55  53  94 CALM      29.98F
DESCANSO N       N/A     48  46  94 SW10      29.95F
CAMPO            N/A     48  48 100 SW9       29.94F

$$

ORANGE COUNTY AND THE LOS ANGELES BASIN

CITY           SKY/WX    TMP DP  RH WIND       PRES   REMARKS
JOHN WAYNE AP  MOCLDY    57  56  96 SW7       29.93S
LAGUNA BEACH     N/A     57  57 100 SE8       29.90R
LAKE FOREST FR   N/A     55  52  90 W1        29.84R
HUNTINGTON BCH   N/A     55  55  98 SW5       29.95R
LOS ALAMITOS   CLOUDY    56  56 100 SW10      29.92S
FULLERTON      CLOUDY    56  56 100 CALM      29.92S FOG
LONG BEACH     CLOUDY    56  53  90 S5        29.92S
L.A. AP        CLOUDY    56  54  93 SW9       29.92R
L.A. DOWNTOWN  CLOUDY    55  53  93 CALM      29.91F

$$

THE INLAND EMPIRE

CITY           SKY/WX    TMP DP  RH WIND       PRES   REMARKS
CORONA         CLOUDY    56  54  93 W10G17    29.92R
CHINO          CLOUDY    55  52  89 W9        29.93R
ONTARIO        CLOUDY    52  51  97 W12       29.91R
SAN BERNARDINO DRIZZLE   55  50  82 S7        29.89S
RIVERSIDE AP   NOT AVBL
MORENO VALLEY    N/A     52  52 100 S5        28.03S
MARCH ARB      MOCLDY    52  52 100 S8        29.90S FOG
HORSETHIEF CYN   N/A     56  47  74 NW20      29.94R
PERRIS           N/A     51  51  99 S6        29.94F
HEMET EAST       N/A     52  49  88 S2        30.00F
FRENCH VALLEY  NOT AVBL
TEMECULA         N/A     54  54  99 SW10      29.97R

$$

SAN BERNARDINO AND RIVERSIDE COUNTY MOUNTAINS

CITY           SKY/WX    TMP DP  RH WIND       PRES   REMARKS
BIG BEAR AP    RAIN      36  34  93 SW14G38   29.82F WCI  27
PINE COVE        N/A     39  39 100 SW5       30.04F

$$

SOUTHERN DESERT INCLUDING THE COACHELLA VALLEY

CITY           SKY/WX    TMP DP  RH WIND       PRES   REMARKS
PALM SPRINGS   HVY RAIN  49  48  97 N5        29.94F FOG
PALM DESERT      N/A     50  49  95 CALM      31.69S
THERMAL        CLOUDY    52  51  97 VRB3      29.91F
BLYTHE         CLOUDY    59  46  62 S8        29.96F
IMPERIAL AP    MOCLDY    59  56  89 SE9       29.94F
EL CENTRO NAS  MOCLDY    54  52  93 NE6       29.95F
YUMA AZ        CLOUDY    60  47  61 SE17      29.97S
MEXICALI       MOCLDY    57  54  88 E8        29.97S

$$

UPPER DESERT

CITY           SKY/WX    TMP DP  RH WIND       PRES   REMARKS
VICTORVILLE AP PTCLDY    48  43  81 SW13G25   29.80S
HESPERIA         N/A     48  45  89 W15       29.96S
PALMDALE       LGT RAIN  50  43  77 SW28G38   29.82R
LANCASTER      MOCLDY    48  42  80 SW14      29.82S
EDWARDS AFB    MOCLDY    49  45  85 SW12      29.80R
DAGGETT        CLOUDY    50  43  77 CALM      29.80F
29 PALMS N     PTCLDY    51  45  79 SE17      29.91F
NEEDLES        CLOUDY    56  44  64 S8        29.92F

$$

REGIONAL REPORTS

CITY           SKY/WX    TMP DP  RH WIND       PRES   REMARKS
SANTA BARBARA  LGT RAIN  51  50  96 W15G25    29.87R
SANDBERG       LGT RAIN  41  39  93 SW17G29   29.80F VSB 1/4
LAS VEGAS NV   CLOUDY    48  41  76 VRB6      29.80F
PHOENIX AZ     MOCLDY    53  42  66 E7        30.03F
TIJUANA        LGT RAIN  55  50  82 SE12      30.00F FOG

$$

OFFSHORE ISLANDS

CITY           SKY/WX    TMP DP  RH WIND       PRES   REMARKS
CATALINA ARPT  FOG       51  51 100 SW14G25   29.92F VSB 1/4
SAN NICOLAS IS   N/A    N/A N/A N/A MISG      29.90F

$$

MARINE AND OFFSHORE BUOY REPORTS

STATION/POSITION SKY/WX   TEMP    WIND        PRES    VSBY  SWELL
                          AIR SEA DIR/SP/G                  HT/PER/DIR
                          (F)     (DEG/KT/KT) (MB)    (MI)  (FT/S/D)
TANNER BANKS               59 58  220/ 16/ 19 1013.7F        11/290/16
S CLEMENTE BASIN           60 60  230/ 14/ 17 1014.5R        11/290/16
SAN NICOLAS IS.               57                N/A           8/290/14
SO. S. ROSA ISLA           56 56  250/ 21/ 27 1011.5R        11/290/16
W. S. BARBARA CH           54 57  270/ 14/ 17 1011.0R        11/290/15
M. S. BARBARA CH                  230/ 14/ 19 1011.5F
S. MONICA BASIN            57 58  200/ 12/ 16 1012.0F         8/250/10
S PEDRO CHANNEL               59                N/A           7/270/17
CMP PENDLETON NS              58                N/A           3/240/15
OCEANSIDE OFFSHR              59                N/A           3/260/11
TORREY PINES OTR              59                N/A           7/280/15
POINT LOMA SOUTH              60                N/A           7/280/15

$$





USA.gov is the U.S. government's official web portal to all federal, state and local government web resources and services.